Satellite-Ground Cal/Val Site Overpasses Predictions

Prediction of Satellite NPP Overpassing Cal/Val Site: Antarctic Dome C

Ground Cal/Val Site Location: Latitude: -75.10, Longitude: 123.35; Satellite-Ground Site NADIR distance within 100 km.

Table of predicted overpasses for the next 14.0 days since TLE Epoch: 8/2/2019
Interval Starting Time Ending Time Minimum Distance Time Minimum Distance (km)
1 08/04/2019 15:01:35 08/04/2019 15:01:58 08/04/2019 15:01:46 60.26
2 08/05/2019 14:42:43 08/05/2019 14:43:09 08/05/2019 14:42:56 48.93
3 08/06/2019 07:44:25 08/06/2019 07:44:46 08/06/2019 07:44:35 71.21
4 08/07/2019 07:25:33 08/07/2019 07:26:00 08/07/2019 07:25:47 36.68
5 08/09/2019 15:08:02 08/09/2019 15:08:07 08/09/2019 15:08:04 98.01
6 08/10/2019 14:48:59 08/10/2019 14:49:28 08/10/2019 14:49:14 13.35
7 08/12/2019 07:31:49 08/12/2019 07:32:18 08/12/2019 07:32:04 3.26
8 08/15/2019 14:55:17 08/15/2019 14:55:46 08/15/2019 14:55:31 23.23


NCC Satellite Cal/Val Overpasses Prediction Service
